Location: Bonny Doon Airfield
(37.0704°N, 122.1252°W)
Time: 23:25:12
(UTC-07:00)

Vanguard 2 - Pass Details

Date: 16 December 2017
Orbit: 553 x 2939 km, 32.9° (Epoch: 21 July)

Event Time Altitude Azimuth Distance (km) Brightness Sun altitude
Rises 18:06:51 0° 272° (W) 3,720 12.5 -14.3°
Reaches altitude 10° 18:10:04 10° 265° (W) 2,456 11.4 -14.9°
Maximum altitude 18:15:06 39° 197° (SSW) 972 8.3 -15.8°
Enters shadow 18:18:28 13° 130° (SE) 1,693 9.0 -16.5°
Drops below altitude 10° 18:18:56 10° 127° (SE) 1,865 - -16.6°
Sets 18:21:05 0° 119° (ESE) 2,713 - -17.0°
